This is the latest recevied weather packets stored in our database for station/object KE0LFX. If no packets are shown the sender has not sent any weather packets the latest 10 day(s).
| Time | Temp. | Humidity | Pressure | Rain* | Wind** | Luminosity | Snow |
|---|---|---|---|---|---|---|---|
| 1777591351 | 12.78° C | 52% | 1018.6 hPa | 0 mm | - | 103 W/m² | - |
| 1777591047 | 12.22° C | 52% | 1018.6 hPa | 0 mm | - | 160 W/m² | - |
| 1777590742 | 12.22° C | 52% | 1018.7 hPa | 0 mm | - | 97 W/m² | - |
| 1777590439 | 12.22° C | 52% | 1018.6 hPa | 0 mm | - | 102 W/m² | - |
| 1777590136 | 12.22° C | 52% | 1018.4 hPa | 0 mm | - | 116 W/m² | - |
| 1777589833 | 12.22° C | 52% | 1018.6 hPa | 0 mm | - | 94 W/m² | - |
| 1777589527 | 12.78° C | 52% | 1018.9 hPa | 0 mm | - | 145 W/m² | - |
| 1777589227 | 12.22° C | 52% | 1018.6 hPa | 0 mm | - | 200 W/m² | - |
| 1777588923 | 12.22° C | 52% | 1018.6 hPa | 0 mm | - | 124 W/m² | - |
| 1777588619 | 12.78° C | 50% | 1018.6 hPa | 0 mm | - | 122 W/m² | - |
| 1777588315 | 12.78° C | 51% | 1018.6 hPa | 0 mm | - | 336 W/m² | - |
| 1777588010 | 12.78° C | 54% | 1018.4 hPa | 0 mm | - | 316 W/m² | - |
| 1777587706 | 13.33° C | 54% | 1018.6 hPa | 0 mm | - | 320 W/m² | - |
| 1777587401 | 12.78° C | 55% | 1018.5 hPa | 0 mm | - | 318 W/m² | - |
| 1777587097 | 12.78° C | 55% | 1018.6 hPa | 0 mm | - | 367 W/m² | - |
| 1777586793 | 12.78° C | 58% | 1018.4 hPa | 0 mm | - | 375 W/m² | - |
| 1777586489 | 12.78° C | 59% | 1018.7 hPa | 0 mm | - | 377 W/m² | - |
| 1777586184 | 12.78° C | 59% | 1018.7 hPa | 0 mm | - | 429 W/m² | - |
| 1777585882 | 12.22° C | 59% | 1018.6 hPa | 0 mm | - | 186 W/m² | - |
| 1777585577 | 12.22° C | 59% | 1018.7 hPa | 0 mm | - | 192 W/m² | - |
| 1777585272 | 12.22° C | 60% | 1018.7 hPa | 0 mm | - | 336 W/m² | - |
| 1777584967 | 11.67° C | 61% | 1018.7 hPa | 0 mm | - | 166 W/m² | - |
| 1777584664 | 12.22° C | 60% | 1018.7 hPa | 0 mm | - | 208 W/m² | - |
| 1777584361 | 11.67° C | 63% | 1019 hPa | 0 mm | - | 200 W/m² | - |
| 1777584057 | 11.67° C | 62% | 1019.1 hPa | 0 mm | - | 144 W/m² | - |
* Rain latest hour (hover to see other rain measurements)
** Current wind speed in m/s (hover to see current wind gust speed)